#timestamp,LO_Frequency,Hit 
1501596015.5,286046889.7,N
1501596035.3,286046889.6,N
1501596055.2,286046890.3,N
1501596075.9,286046890.4,N
1501596095.7,286046890.2,N
1501596115.6,286046887.7,N
1501596135.4,286046888.0,N
1501596155.2,286046887.7,N
1501596175.1,286046888.2,N
1501596176.0,286046888.2,N
1501596195.9,286046887.9,N
1501596215.7,286046888.9,N
1501596235.5,286046888.8,N
1501596255.3,286046887.3,N
1501596275.2,286046884.8,N
1501596295.0,286046886.4,N
1501596295.9,286046886.4,N
1501596315.7,286046886.7,N
1501596335.6,286046886.8,N
1501596355.4,286046885.1,N
1501596375.2,286046887.3,N
1501596395.1,286046887.2,N
1501596396.0,286046887.2,N
1501596415.8,286046885.0,N
1501596435.6,286046887.5,N
1501596455.5,286046884.7,N
1501596475.3,286046887.6,N
1501596495.1,286046885.9,N
1501596515.9,286046885.1,N
1501596535.7,286046883.1,N
1501596555.5,286046885.6,N
1501596575.3,286046885.4,N
1501596595.2,286046885.7,N
1501596615.0,286046885.1,N
1501596615.9,286046885.1,N
1501596635.7,286046882.9,N
1501596655.6,286046883.3,N
1501596675.4,286046883.9,N
1501596695.2,286046884.2,N
1501596715.1,286046883.9,N
1501596716.0,286046883.9,N
1501596735.8,286046884.3,N
1501596755.6,286046881.7,N
1501596775.5,286046882.5,N
1501596795.3,286046881.3,N
1501596815.1,286046882.0,N
1501596835.9,286046882.1,N
1501596855.7,286046879.8,N
1501596875.5,286046882.4,N
1501596895.3,286046880.4,N
1501596915.2,286046880.4,N
1501596935.0,286046880.8,N
1501596935.9,286046880.8,N
1501596955.7,286046880.8,N
1501596975.6,286046879.1,N
1501596995.4,286046879.3,N
1501597015.2,286046878.9,N
1501597035.1,286046879.4,N
1501597036.0,286046879.4,N
1501597055.8,286046879.3,N
1501597075.6,286046878.7,N
1501597095.5,286046879.0,N
1501597115.3,286046879.5,N
1501597135.1,286046879.4,N
1501597155.8,286046879.5,N
1501597175.7,286046879.3,N
1501597195.5,286046876.9,N
1501597215.3,286046876.6,N
1501597235.2,286046875.1,N
1501597255.9,286046875.4,N
1501597275.7,286046875.0,N
1501597295.6,286046875.0,N
1501597315.4,286046875.1,N
1501597335.2,286046873.3,N
1501597355.1,286046876.4,N
1501597356.0,286046876.4,N
1501597375.8,286046875.4,N
1501597395.6,286046873.9,N
1501597415.4,286046873.8,N
1501597435.3,286046876.2,N
1501597455.1,286046874.7,N
1501597475.8,286046874.6,N
1501597495.7,286046873.5,N
1501597515.5,286046874.0,N
1501597535.3,286046873.6,N
1501597555.2,286046873.9,N
1501597575.9,286046874.0,N
1501597595.7,286046874.7,N
1501597615.6,286046871.8,N
1501597635.4,286046871.7,N
1501597655.2,286046874.0,N
1501597675.0,286046872.4,N
1501597675.9,286046872.4,N
1501597695.8,286046874.6,N
1501597715.6,286046871.9,N
1501597735.4,286046871.7,N
1501597755.3,286046874.5,N
1501597775.1,286046874.8,N
1501597795.8,286046872.9,N
1501597815.7,286046872.9,N
1501597835.5,286046874.7,N
1501597855.3,286046874.2,N
1501597875.2,286046871.7,N
1501597895.9,286046873.2,N
1501597915.7,286046872.0,N
1501597935.5,286046870.8,N
1501597955.4,286046873.2,N
1501597975.2,286046872.8,N
1501597995.0,286046870.8,N
1501597995.9,286046870.8,N
1501598015.8,286046870.5,N
1501598035.6,286046870.7,N
1501598055.4,286046870.9,N
1501598075.3,286046870.4,N
1501598095.1,286046872.6,N
1501598096.0,286046872.6,N
1501598115.8,286046870.8,N
1501598135.7,286046868.8,N
1501598155.5,286046871.5,N
1501598175.3,286046871.2,N
1501598195.2,286046867.0,N
1501598215.9,286046867.0,N
1501598235.7,286046867.5,N
1501598255.5,286046867.3,N
1501598275.4,286046867.5,N
1501598295.2,286046867.6,N
1501598315.0,286046867.1,N
1501598315.9,286046867.1,N
1501598335.8,286046870.0,N
1501598355.6,286046867.7,N
1501598375.4,286046866.2,N
1501598395.3,286046866.1,N
1501598415.1,286046866.6,N
1501598416.0,286046866.6,N
1501598435.8,286046865.5,N
1501598455.7,286046865.6,N
1501598475.5,286046866.0,N
1501598495.3,286046866.2,N
1501598515.2,286046866.5,N
1501598535.9,286046868.1,N
1501598555.7,286046865.3,N
1501598575.5,286046866.6,N
1501598595.4,286046864.1,N
1501598615.2,286046863.8,N
1501598635.0,286046866.6,N
1501598635.9,286046866.6,N
1501598655.8,286046864.7,N
1501598675.6,286046864.0,N
1501598695.4,286046862.6,N
1501598715.3,286046864.9,N
1501598735.1,286046862.2,N
1501598736.0,286046862.2,N
1501598755.8,286046862.9,N
1501598775.7,286046863.2,N
1501598795.5,286046862.5,N
1501598815.3,286046862.7,N
1501598835.2,286046863.2,N
1501598855.9,286046862.8,N
1501598875.7,286046863.2,N
1501598895.5,286046863.2,N
1501598915.4,286046863.2,N
1501598935.2,286046860.8,Y
1501598955.0,286046955.0,N
1501598955.9,286046955.0,N
1501598975.8,286046958.0,N
1501598995.6,286046958.0,N
1501599015.4,286046955.7,N
1501599035.3,286046958.0,N
1501599055.1,286046955.9,N
1501599075.8,286046956.3,N
1501599095.7,286046954.2,N
1501599115.5,286046956.1,N
1501599135.3,286046955.9,N
1501599155.2,286046956.3,N
1501599175.9,286046956.0,N
1501599195.7,286046953.4,N
1501599215.5,286046954.2,N
1501599235.4,286046951.7,N
1501599255.2,286046952.3,N
1501599275.0,286046951.7,N
1501599275.9,286046951.7,N
1501599295.8,286046954.5,N
1501599315.6,286046953.9,N
1501599335.4,286046953.3,N
1501599355.3,286046954.3,N
1501599375.1,286046951.8,N
1501599376.0,286046951.8,N
1501599395.8,286046952.3,N
1501599415.7,286046953.2,N
1501599435.5,286046954.8,N
1501599455.3,286046953.1,N
1501599475.1,286046952.5,N
1501599495.9,286046953.2,N
1501599515.7,286046952.6,N
1501599535.5,286046952.7,N
1501599555.4,286046950.6,N
1501599575.2,286046952.9,N
1501599595.0,286046953.0,N
1501599595.9,286046953.0,N
